Weather History for Jackson, WY

Change the Weather History Date:

Saturday, June 29, 2013

  Actual Average Record
Temperature  
Mean Temperature 64 °F -  
Max Temperature 84 °F 76 °F 87 °F (2007)
Min Temperature 44 °F 37 °F 26 °F (1969)
Degree Days  
Heating Degree Days 1    
Growing Degree Days 14 (Base 50)    
Moisture  
Dew Point 41 °F    
Average Humidity 48    
Maximum Humidity 76    
Minimum Humidity 19    
Precipitation  
Precipitation 0.00 in - - ()
Sea Level Pressure  
Sea Level Pressure 30.33 in    
Wind  
Wind Speed 6 mph (North)    
Max Wind Speed 22 mph    
Max Gust Speed 28 mph    
Visibility 10 miles    
Events      
Averages and records for this station are not official NWS values.
T = Trace of Precipitation, MM = Missing Value Source: NWS Daily Summary

Daily Weather History Graph

Daily Weather History Graph

Search for Another Location

Airport:

Trip Planner

Search our weather history database for the weather conditions in past years. The results will help you decide how hot, cold, wet, or windy it might be!

Date:

Astronomy

Jun. 29, 2013 Rise Set
Actual Time 5:44 AM MDT 9:08 PM MDT
Civil Twilight 5:08 AM MDT 9:44 PM MDT
Nautical Twilight 4:21 AM MDT 10:30 PM MDT
Astronomical Twilight 3:23 AM MDT 11:29 PM MDT
Moon 12:25 AM MDT (6/29) 1:14 PM MDT (6/29)
Length of Visible Light 16h 35m
Length of Day
15h 23m
Waning Gibbous, 55% of the Moon is Illuminated
Jun 29
Waning Gibbous
Jun 29
Last Quarter
Jul 8
New
Jul 15
First Quarter
Jul 22
Full

Hourly Weather History & Observations

Time (MDT) Temp. Windchill Dew Point Humidity Pressure Visibility Wind Dir Wind Speed Gust Speed Precip Events Conditions
12:15 AM 51.8 °F - 35.6 °F 54% 30.35 in 10.0 mi North 6.9 mph - N/A   Clear
12:55 AM 55.4 °F - 37.4 °F 51% 30.36 in 10.0 mi NNE 5.8 mph - N/A   Clear
1:35 AM 55.4 °F - 37.4 °F 51% 30.36 in 10.0 mi North 6.9 mph - N/A   Clear
1:55 AM 53.6 °F - 37.4 °F 54% 30.36 in 10.0 mi North 6.9 mph - N/A   Clear
2:15 AM 51.8 °F - 37.4 °F 58% 30.36 in 10.0 mi North 5.8 mph - N/A   Clear
2:35 AM 53.6 °F - 37.4 °F 54% 30.36 in 10.0 mi NNE 4.6 mph - N/A   Clear
2:55 AM 55.4 °F - 37.4 °F 51% 30.36 in 10.0 mi Calm Calm - N/A   Clear
3:15 AM 55.4 °F - 37.4 °F 51% 30.36 in 10.0 mi NNE 5.8 mph - N/A   Clear
3:35 AM 55.4 °F - 37.4 °F 51% 30.36 in 10.0 mi North 4.6 mph - N/A   Clear
3:55 AM 55.4 °F - 37.4 °F 51% 30.36 in 10.0 mi NNW 4.6 mph - N/A   Clear
4:15 AM 53.6 °F - 39.2 °F 58% 30.36 in 10.0 mi North 6.9 mph - N/A   Clear
4:35 AM 51.8 °F - 37.4 °F 58% 30.36 in 10.0 mi NNE 4.6 mph - N/A   Clear
4:55 AM 48.2 °F - 37.4 °F 66% 30.35 in 10.0 mi NNE 4.6 mph - N/A   Clear
5:15 AM 46.4 °F 45.2 °F 37.4 °F 71% 30.37 in 10.0 mi North 3.5 mph - N/A   Clear
5:35 AM 44.6 °F 42.2 °F 37.4 °F 76% 30.38 in 10.0 mi South 4.6 mph - N/A   Clear
5:55 AM 44.6 °F 43.1 °F 37.4 °F 76% 30.38 in 10.0 mi NW 3.5 mph - N/A   Clear
6:15 AM 46.4 °F - 37.4 °F 71% 30.39 in 10.0 mi Calm Calm - N/A   Clear
6:35 AM 48.2 °F - 37.4 °F 66% 30.39 in 10.0 mi Calm Calm - N/A   Clear
6:51 AM 48.2 °F - 39.2 °F 71% 30.39 in 10.0 mi Calm Calm - N/A   Clear
7:56 AM 57.2 °F - 41.0 °F 55% 30.39 in 10.0 mi Calm Calm - N/A   Clear
8:55 AM 64.4 °F - 42.8 °F 45% 30.39 in 10.0 mi Calm Calm - N/A   Clear
9:55 AM 64.4 °F - 44.6 °F 49% 30.37 in 10.0 mi Calm Calm - N/A   Clear
10:51 AM 71.6 °F - 42.8 °F 35% 30.36 in 10.0 mi Calm Calm - N/A   Clear
11:51 AM 77.0 °F - 44.6 °F 32% 30.33 in 10.0 mi SW 5.8 mph - N/A   Clear
12:51 PM 82.4 °F - 39.2 °F 21% 30.31 in 10.0 mi SSW 4.6 mph - N/A   Partly Cloudy
1:51 PM 82.4 °F - 39.2 °F 21% 30.28 in 10.0 mi SW 6.9 mph - N/A   Partly Cloudy
2:51 PM 80.6 °F - 41.0 °F 24% 30.26 in 10.0 mi West 8.1 mph - N/A   Partly Cloudy
3:52 PM 82.4 °F - 41.0 °F 23% 30.25 in 10.0 mi SSW 9.2 mph - N/A   Scattered Clouds
4:53 PM 84.2 °F - 37.4 °F 19% 30.23 in 10.0 mi South 21.9 mph 26.5 mph N/A   Clear
5:51 PM 80.6 °F - 42.8 °F 26% 30.23 in 10.0 mi SSW 16.1 mph 19.6 mph N/A   Clear
6:51 PM 75.2 °F - 44.6 °F 34% 30.22 in 10.0 mi SW 8.1 mph - N/A   Scattered Clouds
7:51 PM 75.2 °F - 42.8 °F 31% 30.26 in 10.0 mi NNE 19.6 mph 27.6 mph N/A   Mostly Cloudy
8:51 PM 71.6 °F - 44.6 °F 38% 30.29 in 10.0 mi NNE 11.5 mph 27.6 mph N/A   Mostly Cloudy
9:15 PM 71.6 °F - 44.6 °F 38% 30.30 in 10.0 mi NNE 8.1 mph 19.6 mph N/A   Partly Cloudy
9:35 PM 69.8 °F - 44.6 °F 40% 30.30 in 10.0 mi North 13.8 mph - N/A   Clear
9:55 PM 66.2 °F - 46.4 °F 49% 30.30 in 10.0 mi NNW 15.0 mph 19.6 mph N/A   Clear
10:15 PM 66.2 °F - 46.4 °F 49% 30.31 in 10.0 mi North 10.4 mph - N/A   Partly Cloudy
10:35 PM 66.2 °F - 46.4 °F 49% 30.31 in 10.0 mi North 9.2 mph - N/A   Mostly Cloudy
10:55 PM 66.2 °F - 46.4 °F 49% 30.32 in 10.0 mi North 10.4 mph - N/A   Overcast
11:15 PM 66.2 °F - 48.2 °F 52% 30.33 in 10.0 mi North 11.5 mph - N/A   Mostly Cloudy
11:35 PM 64.4 °F - 48.2 °F 56% 30.33 in 10.0 mi North 9.2 mph - N/A   Scattered Clouds
11:55 PM 62.6 °F - 50.0 °F 63% 30.33 in 10.0 mi North 10.4 mph - N/A   Mostly Cloudy